Kandahar, Afghanistan

1:51 PM +0430 on December 18, 2017 (GMT +0430)
Kandahar

Weather History for OAKN - December, 2012

Change the Weather History Date:

Saturday, December 8, 2012

  Actual Average Record
Temperature  
Mean Temperature 52 °F -  
Max Temperature 64 °F 58 °F - ()
Min Temperature 39 °F 33 °F - ()
Degree Days  
Heating Degree Days 14    
Growing Degree Days 2 (Base 50)    
Moisture  
Dew Point 36 °F    
Average Humidity 59    
Maximum Humidity 87    
Minimum Humidity 30    
Precipitation  
Precipitation 0.00 in 0.04 in - ()
Sea Level Pressure  
Sea Level Pressure 30.14 in    
Wind  
Wind Speed 4 mph ()    
Max Wind Speed 9 mph    
Max Gust Speed -    
Visibility 5.9 miles    
Events      
T = Trace of Precipitation, MM = Missing Value Source: Averaged Metar Reports

Daily Weather History Graph

Daily Weather History Graph

Search for Another Location

Airport or City:

Trip Planner

Search our weather history database for the weather conditions in past years. The results will help you decide how hot, cold, wet, or windy it might be!

Date:

Astronomy

Dec. 08, 2012 Rise Set
Actual Time 6:53 AM +0430 5:03 PM +0430
Civil Twilight 6:26 AM +0430 5:30 PM +0430
Nautical Twilight 5:56 AM +0430 6:00 PM +0430
Astronomical Twilight 5:27 AM +0430 6:29 PM +0430
Moon 1:07 AM +0430 (12/8) 1:02 PM +0430 (12/8)
Length of Visible Light 11h 03m
Length of Day
10h 09m
Waning Crescent, 32% of the Moon is Illuminated
Dec 8
Waning Crescent
Dec 13
New
Dec 20
First Quarter
Dec 28
Full
Jan 5
Last Quarter

Hourly Weather History & Observations

Time (+0430) Temp. Windchill Dew Point Humidity Pressure Visibility Wind Dir Wind Speed Gust Speed Precip Events Conditions
12:20 AM 44.6 °F 42.2 °F 41.0 °F 87% 30.18 in 6.2 mi NE 4.6 mph - N/A   Clear
1:20 AM 42.8 °F 38.6 °F 39.2 °F 87% 30.19 in 6.2 mi ENE 6.9 mph - N/A   Clear
2:20 AM 42.8 °F 41.1 °F 39.2 °F 87% 30.19 in 6.2 mi ESE 3.5 mph - N/A   Clear
3:20 AM 42.8 °F 39.3 °F 37.4 °F 81% 30.19 in 6.2 mi ENE 5.8 mph - N/A   Clear
4:20 AM 42.8 °F 40.1 °F 37.4 °F 81% 30.20 in 6.2 mi East 4.6 mph - N/A   Clear
5:20 AM 41.0 °F 37.1 °F 37.4 °F 87% 30.22 in 6.2 mi NE 5.8 mph - N/A   Clear
6:20 AM 39.2 °F 35.0 °F 35.6 °F 87% 30.24 in 6.2 mi ENE 5.8 mph - N/A   Clear
7:20 AM 39.2 °F 34.2 °F 35.6 °F 87% 30.20 in 6.2 mi East 6.9 mph - N/A   Clear
8:20 AM 42.8 °F 38.0 °F 37.4 °F 81% 30.23 in 6.2 mi ENE 8.1 mph - N/A   Clear
9:20 AM 50.0 °F - 39.2 °F 66% 30.26 in 6.2 mi ENE 9.2 mph - N/A   Clear
10:20 AM 55.4 °F - 41.0 °F 58% 30.26 in 6.2 mi East 9.2 mph - N/A   Clear
11:20 AM 59.0 °F - 41.0 °F 51% 30.22 in 6.2 mi Variable 2.3 mph - N/A   Clear
12:20 PM 60.8 °F - 41.0 °F 48% 30.19 in 6.2 mi Variable 3.5 mph - N/A   Clear
1:20 PM 64.4 °F - 39.2 °F 40% 30.02 in 6.2 mi SE 2.3 mph - N/A   Partly Cloudy
2:20 PM 64.4 °F - 35.6 °F 34% 30.00 in 6.2 mi North 4.6 mph - N/A   Partly Cloudy
3:20 PM 64.4 °F - 32.0 °F 30% 29.98 in 6.2 mi WNW 2.3 mph - N/A   Clear
4:20 PM 64.4 °F - 32.0 °F 30% 29.98 in 6.2 mi WNW 2.3 mph - N/A   Clear
5:20 PM 60.8 °F - 33.8 °F 36% 30.01 in 6.2 mi WSW 4.6 mph - N/A   Clear
6:20 PM 59.0 °F - 33.8 °F 39% 30.04 in 6.2 mi South 3.5 mph - N/A   Clear
7:20 PM 55.4 °F - 33.8 °F 44% 30.08 in 6.2 mi Calm Calm - N/A   Clear
8:13 PM 51.8 °F - 30.2 °F 44% 30.10 in 3.7 mi East 2.3 mph - N/A   Smoke
8:20 PM 51.8 °F - 30.2 °F 44% 30.10 in 2.5 mi East 3.5 mph - N/A   Smoke
8:41 PM 50.0 °F - 28.4 °F 43% 30.11 in 3.7 mi East 3.5 mph - N/A   Smoke
9:20 PM 46.4 °F 45.2 °F 30.2 °F 53% 30.13 in 6.2 mi NNE 3.5 mph - N/A   Clear
10:20 PM 46.4 °F 45.2 °F 30.2 °F 53% 30.14 in 6.2 mi ENE 3.5 mph - N/A   Clear
11:20 PM 46.4 °F 41.9 °F 32.0 °F 57% 30.12 in 6.2 mi ENE 9.2 mph - N/A   Clear